NORTHEAST SUFFOLK  -  Winter Weather Advisory Winter Weather Advisory        NORTHERN NASSAU  -  Winter Weather Advisory Winter Weather Advisory        NORTHWEST SUFFOLK  -  Winter Weather Advisory Winter Weather Advisory        SOUTHEAST SUFFOLK  -  Winter Weather Advisory Winter Weather Advisory        SOUTHERN NASSAU  -  Winter Weather Advisory Winter Weather Advisory        SOUTHWEST SUFFOLK  -  Winter Weather Advisory Winter Weather Advisory      

Active alerts

Northern Nassau
  Details for Northern Nassau Winter Weather Advisory
Southern Nassau
  Details for Southern Nassau Winter Weather Advisory
Northwest Suffolk
  Details for Northwest Suffolk Winter Weather Advisory
Southwest Suffolk
  Details for Southwest Suffolk Winter Weather Advisory
Northeast Suffolk
  Details for Northeast Suffolk Winter Weather Advisory
Southeast Suffolk
  Details for Southeast Suffolk Winter Weather Advisory


WXM80 ListenWXM80 Stop

You find our weather info also at:

UK Metoffice

WeatherCloud

Weather Underground

Northeastern Weather Network

AWEKAS

Citizen Weather Observer Program (CWOP)

HAMweather, WeatherForYou, PWS Weather


Weather Underground History page Text

Daily Summary for December 29, 2016 Units:  English    Metric   Both
« Previous Day
Next Day »
Daily Weekly Monthly Yearly Custom
  High: Low: Average:
Temperature: 44.2 °F 27.4 °F 36.9 °F
Dew Point: 43.1 °F 22.8 °F 33.5 °F
Humidity: 96 % 78 % 87 %
Wind Speed: 11.6 mph 0.0 mph 2.4 mph
Wind Gust: 29.0 mph - -
Wind:- - SSW
Pressure: 30.11 in 29.48 in -
Precipitation: 0.59 in    
Historical Graphs
 
 
Tabular Data for December 29, 2016
Time Temperature Dew Point Pressure Wind Wind Speed Wind Gust Humidity Rainfall Rate (Hourly)
00:01 28.9 °F 23.2 °F 30.11 in West 1.1 mph 29.0 mph 79 % 0.00 in
00:06 28.8 °F 23.1 °F 30.11 in West 0.4 mph 29.0 mph 79 % 0.00 in
00:11 28.8 °F 23.4 °F 30.11 in Calm   29.0 mph 80 % 0.00 in
00:16 28.7 °F 23.3 °F 30.10 in Calm   29.0 mph 80 % 0.00 in
00:21 28.7 °F 23.0 °F 30.09 in Calm   29.0 mph 79 % 0.00 in
00:26 28.7 °F 23.0 °F 30.09 in Calm   29.0 mph 79 % 0.00 in
00:31 28.6 °F 23.2 °F 30.08 in Calm   29.0 mph 80 % 0.00 in
00:36 28.5 °F 23.1 °F 30.08 in Calm   29.0 mph 80 % 0.00 in
00:41 28.5 °F 23.1 °F 30.08 in West 0.1 mph 29.0 mph 80 % 0.00 in
00:46 28.4 °F 23.0 °F 30.07 in Calm   29.0 mph 80 % 0.00 in
00:52 28.3 °F 23.2 °F 30.08 in West 0.3 mph 29.0 mph 81 % 0.00 in
00:57 28.2 °F 23.1 °F 30.08 in West 0.2 mph 29.0 mph 81 % 0.00 in
01:02 28.1 °F 23.0 °F 30.07 in Calm   29.0 mph 81 % 0.00 in
01:07 28.0 °F 22.9 °F 30.07 in West 0.8 mph 29.0 mph 81 % 0.00 in
01:12 28.0 °F 22.9 °F 30.07 in West 0.2 mph 29.0 mph 81 % 0.00 in
01:17 27.9 °F 22.8 °F 30.07 in Calm   29.0 mph 81 % 0.00 in
01:22 27.8 °F 23.0 °F 30.07 in West 0.1 mph 29.0 mph 82 % 0.00 in
01:27 27.8 °F 23.0 °F 30.08 in West 1.2 mph 29.0 mph 82 % 0.00 in
01:32 27.8 °F 23.0 °F 30.08 in West 1.4 mph 29.0 mph 82 % 0.00 in
01:37 27.7 °F 22.9 °F 30.08 in West 0.7 mph 29.0 mph 82 % 0.00 in
01:42 27.6 °F 22.8 °F 30.07 in Calm   29.0 mph 82 % 0.00 in
01:47 27.6 °F 23.1 °F 30.08 in Calm   29.0 mph 83 % 0.00 in
01:52 27.6 °F 23.1 °F 30.08 in Calm   29.0 mph 83 % 0.00 in
01:57 27.6 °F 23.1 °F 30.08 in Calm   29.0 mph 83 % 0.00 in
02:02 27.5 °F 23.0 °F 30.08 in Calm   29.0 mph 83 % 0.00 in
02:07 27.5 °F 23.0 °F 30.08 in Calm   29.0 mph 83 % 0.00 in
02:12 27.5 °F 23.0 °F 30.08 in Calm   29.0 mph 83 % 0.00 in
02:17 27.5 °F 23.0 °F 30.08 in Calm   29.0 mph 83 % 0.00 in
02:23 27.5 °F 23.0 °F 30.08 in West 0.9 mph 29.0 mph 83 % 0.00 in
02:28 27.4 °F 23.2 °F 30.08 in West 0.9 mph 29.0 mph 84 % 0.00 in
02:33 27.4 °F 23.2 °F 30.08 in West 0.2 mph 29.0 mph 84 % 0.00 in
02:38 27.5 °F 23.3 °F 30.07 in SSE 2.1 mph 29.0 mph 84 % 0.00 in
02:43 27.7 °F 23.2 °F 30.07 in SE 2.3 mph 29.0 mph 83 % 0.00 in
02:48 27.9 °F 23.4 °F 30.07 in Calm   29.0 mph 83 % 0.00 in
02:53 28.0 °F 23.5 °F 30.07 in SE 1.2 mph 29.0 mph 83 % 0.00 in
02:58 28.2 °F 23.7 °F 30.06 in SE 1.2 mph 29.0 mph 83 % 0.00 in
03:03 28.4 °F 23.9 °F 30.05 in SE 1.5 mph 29.0 mph 83 % 0.00 in
03:08 28.5 °F 23.7 °F 30.05 in SE 0.9 mph 29.0 mph 82 % 0.00 in
03:13 28.7 °F 23.6 °F 30.05 in SE 1.8 mph 29.0 mph 81 % 0.00 in
03:18 29.1 °F 23.7 °F 30.05 in SE 0.4 mph 29.0 mph 80 % 0.00 in
03:23 29.3 °F 23.6 °F 30.05 in Calm   29.0 mph 79 % 0.00 in
03:28 29.5 °F 23.8 °F 30.05 in SE 0.9 mph 29.0 mph 79 % 0.00 in
03:33 29.6 °F 23.9 °F 30.04 in SE 0.4 mph 29.0 mph 79 % 0.00 in
03:39 29.7 °F 24.0 °F 30.05 in Calm   29.0 mph 79 % 0.00 in
03:44 29.7 °F 23.7 °F 30.04 in Calm   29.0 mph 78 % 0.00 in
03:49 29.8 °F 23.8 °F 30.03 in Calm   29.0 mph 78 % 0.00 in
03:54 29.8 °F 24.1 °F 30.03 in Calm   29.0 mph 79 % 0.00 in
03:59 29.9 °F 24.2 °F 30.04 in Calm   29.0 mph 79 % 0.00 in
04:04 29.8 °F 24.1 °F 30.04 in Calm   29.0 mph 79 % 0.00 in
04:09 29.8 °F 24.1 °F 30.04 in Calm   29.0 mph 79 % 0.00 in
04:14 29.7 °F 23.7 °F 30.02 in Calm   29.0 mph 78 % 0.00 in
04:19 29.6 °F 23.6 °F 30.02 in Calm   29.0 mph 78 % 0.00 in
04:24 29.6 °F 23.6 °F 30.01 in Calm     78 % 0.00 in
04:29 29.5 °F 23.8 °F 30.01 in Calm   29.0 mph 79 % 0.00 in
04:34 29.4 °F 23.7 °F 30.01 in Calm     79 % 0.00 in
04:39 29.3 °F 23.6 °F 30.00 in Calm     79 % 0.00 in
04:44 29.2 °F 23.5 °F 30.01 in Calm   1.0 mph 79 % 0.00 in
04:49 29.2 °F 23.8 °F 30.00 in Calm   1.0 mph 80 % 0.00 in
04:54 29.1 °F 23.7 °F 30.00 in Calm     80 % 0.00 in
04:59 29.1 °F 23.7 °F 29.99 in Calm   29.0 mph 80 % 0.00 in
05:04 29.1 °F 24.0 °F 29.99 in Calm     81 % 0.00 in
05:09 29.0 °F 23.9 °F 29.99 in Calm   29.0 mph 81 % 0.00 in
05:14 29.1 °F 24.0 °F 29.99 in Calm   29.0 mph 81 % 0.00 in
05:19 29.1 °F 24.0 °F 29.99 in Calm   29.0 mph 81 % 0.00 in
05:24 29.1 °F 24.3 °F 29.97 in Calm   29.0 mph 82 % 0.00 in
05:29 29.2 °F 24.4 °F 29.97 in Calm   29.0 mph 82 % 0.00 in
05:35 29.2 °F 24.4 °F 29.97 in Calm   29.0 mph 82 % 0.00 in
05:40 29.1 °F 24.3 °F 29.97 in Calm   29.0 mph 82 % 0.00 in
05:45 29.2 °F 24.7 °F 29.97 in Calm   29.0 mph 83 % 0.00 in
05:50 29.2 °F 25.0 °F 29.97 in SE 0.5 mph 29.0 mph 84 % 0.00 in
05:55 29.2 °F 25.0 °F 29.97 in SE 0.3 mph 29.0 mph 84 % 0.00 in
06:00 29.2 °F 25.0 °F 29.96 in SE 1.5 mph 29.0 mph 84 % 0.00 in
06:05 29.3 °F 25.4 °F 29.96 in SE 0.2 mph 29.0 mph 85 % 0.00 in
06:10 29.3 °F 25.6 °F 29.96 in SE 1.1 mph 29.0 mph 86 % 0.00 in
06:15 29.4 °F 25.7 °F 29.96 in SE 0.2 mph 29.0 mph 86 % 0.00 in
06:20 29.4 °F 25.7 °F 29.96 in SE 0.3 mph 29.0 mph 86 % 0.00 in
06:25 29.6 °F 25.9 °F 29.95 in SE 1.6 mph 29.0 mph 86 % 0.00 in
06:30 29.8 °F 26.1 °F 29.95 in SE 0.4 mph 29.0 mph 86 % 0.00 in
06:35 30.1 °F 26.4 °F 29.95 in SE 0.9 mph 29.0 mph 86 % 0.00 in
06:40 30.3 °F 26.6 °F 29.95 in SE 0.2 mph 29.0 mph 86 % 0.00 in
06:45 30.6 °F 26.9 °F 29.94 in SE 0.1 mph 29.0 mph 86 % 0.00 in
06:51 30.8 °F 27.1 °F 29.95 in SE 1.1 mph 29.0 mph 86 % 0.00 in
06:56 31.0 °F 27.3 °F 29.95 in Calm   29.0 mph 86 % 0.00 in
07:01 31.4 °F 27.7 °F 29.96 in SE 1.1 mph 29.0 mph 86 % 0.00 in
07:06 31.9 °F 27.9 °F 29.96 in Calm   29.0 mph 85 % 0.00 in
07:11 32.1 °F 28.1 °F 29.96 in SE 0.8 mph 29.0 mph 85 % 0.00 in
07:16 32.4 °F 28.1 °F 29.95 in SE 1.1 mph 29.0 mph 84 % 0.00 in
07:21 32.8 °F 28.5 °F 29.95 in SE 1.2 mph 29.0 mph 84 % 0.00 in
07:26 33.0 °F 28.7 °F 29.94 in SE 1.2 mph 29.0 mph 84 % 0.00 in
07:31 33.2 °F 28.9 °F 29.93 in SE 0.7 mph 29.0 mph 84 % 0.00 in
07:36 33.4 °F 29.1 °F 29.92 in ESE 0.6 mph 29.0 mph 84 % 0.00 in
07:41 33.6 °F 29.3 °F 29.91 in ESE 0.4 mph 29.0 mph 84 % 0.00 in
07:46 33.7 °F 29.4 °F 29.91 in SE 1.1 mph 29.0 mph 84 % 0.00 in
07:51 33.9 °F 29.6 °F 29.91 in SSE 1.3 mph 29.0 mph 84 % 0.00 in
07:56 34.1 °F 30.1 °F 29.91 in SSE 1.2 mph 29.0 mph 85 % 0.00 in
08:01 34.3 °F 30.3 °F 29.90 in ESE 0.9 mph 29.0 mph 85 % 0.00 in
08:06 34.5 °F 30.5 °F 29.90 in ESE 2.0 mph 29.0 mph 85 % 0.00 in
08:11 34.8 °F 30.8 °F 29.90 in ESE 2.0 mph 29.0 mph 85 % 0.00 in
08:17 35.1 °F 31.0 °F 29.89 in ESE 0.9 mph 29.0 mph 85 % 0.00 in
08:22 35.3 °F 31.2 °F 29.89 in SE 2.5 mph 29.0 mph 85 % 0.00 in
08:27 35.7 °F 31.6 °F 29.89 in SE 2.5 mph 29.0 mph 85 % 0.00 in
08:32 36.1 °F 32.0 °F 29.88 in SSE 3.5 mph 29.0 mph 85 % 0.00 in
08:37 36.4 °F 32.3 °F 29.86 in ESE 2.9 mph 29.0 mph 85 % 0.00 in
08:42 36.7 °F 32.6 °F 29.88 in SE 1.6 mph 29.0 mph 85 % 0.00 in
08:47 36.9 °F 32.8 °F 29.87 in SE 2.7 mph 29.0 mph 85 % 0.00 in
08:52 37.1 °F 33.0 °F 29.88 in SSE 4.4 mph 29.0 mph 85 % 0.00 in
08:57 37.4 °F 33.0 °F 29.87 in South 2.9 mph 29.0 mph 84 % 0.00 in
09:02 37.7 °F 33.3 °F 29.86 in SE 3.7 mph 29.0 mph 84 % 0.00 in
09:07 38.0 °F 33.6 °F 29.86 in SSE 6.1 mph 29.0 mph 84 % 0.00 in
09:12 38.4 °F 34.0 °F 29.86 in SE 4.0 mph 29.0 mph 84 % 0.00 in
09:17 38.7 °F 34.3 °F 29.85 in SSE 5.0 mph 29.0 mph 84 % 0.00 in
09:22 38.9 °F 34.5 °F 29.85 in ENE 3.6 mph 29.0 mph 84 % 0.00 in
09:27 39.0 °F 34.9 °F 29.85 in SE 3.8 mph 29.0 mph 85 % 0.00 in
09:32 39.1 °F 35.3 °F 29.84 in SE 3.5 mph 29.0 mph 86 % 0.00 in
09:38 39.2 °F 35.4 °F 29.83 in ESE 1.3 mph 29.0 mph 86 % 0.00 in
09:43 39.2 °F 35.7 °F 29.83 in SE 1.1 mph 29.0 mph 87 % 0.00 in
09:48 39.2 °F 35.9 °F 29.83 in SE 1.4 mph 29.0 mph 88 % 0.00 in
09:53 39.2 °F 36.2 °F 29.82 in ENE 0.7 mph 29.0 mph 89 % 0.00 in
09:58 39.3 °F 36.3 °F 29.82 in Calm   29.0 mph 89 % 0.01 in
10:03 39.3 °F 36.6 °F 29.82 in SE 0.1 mph 29.0 mph 90 % 0.01 in
10:08 39.4 °F 36.7 °F 29.82 in Calm   29.0 mph 90 % 0.01 in
10:13 39.5 °F 37.1 °F 29.81 in SSE 0.2 mph 29.0 mph 91 % 0.02 in
10:18 39.7 °F 37.3 °F 29.80 in SSE 1.3 mph 29.0 mph 91 % 0.02 in
10:23 40.1 °F 38.2 °F 29.79 in SSE 2.6 mph 29.0 mph 93 % 0.03 in
10:28 40.7 °F 38.8 °F 29.79 in South 3.0 mph 29.0 mph 93 % 0.03 in
10:33 41.0 °F 39.1 °F 29.79 in South 2.1 mph 29.0 mph 93 % 0.03 in
10:38 41.3 °F 39.4 °F 29.79 in South 2.6 mph 29.0 mph 93 % 0.03 in
10:43 41.6 °F 40.0 °F 29.78 in SSE 2.7 mph 29.0 mph 94 % 0.03 in
10:48 41.8 °F 40.2 °F 29.77 in South 2.3 mph 29.0 mph 94 % 0.04 in
10:53 42.0 °F 40.4 °F 29.75 in SSE 3.4 mph 29.0 mph 94 % 0.04 in
10:59 42.2 °F 40.6 °F 29.75 in SE 4.3 mph 29.0 mph 94 % 0.03 in
11:04 42.3 °F 40.4 °F 29.74 in SSE 3.4 mph 29.0 mph 93 % 0.03 in
11:09 42.4 °F 40.5 °F 29.74 in SE 3.7 mph 29.0 mph 93 % 0.03 in
11:14 42.5 °F 40.6 °F 29.73 in SE 3.8 mph 29.0 mph 93 % 0.03 in
11:19 42.5 °F 40.6 °F 29.72 in SSE 4.8 mph 29.0 mph 93 % 0.03 in
11:24 42.6 °F 40.7 °F 29.72 in SSE 2.1 mph 29.0 mph 93 % 0.02 in
11:29 42.8 °F 41.2 °F 29.71 in South 2.4 mph 29.0 mph 94 % 0.03 in
11:34 42.9 °F 41.3 °F 29.71 in SSE 4.6 mph 29.0 mph 94 % 0.04 in
11:39 43.0 °F 41.4 °F 29.70 in SE 6.3 mph 29.0 mph 94 % 0.05 in
11:44 43.0 °F 41.4 °F 29.70 in South 6.1 mph 29.0 mph 94 % 0.05 in
11:49 43.1 °F 41.5 °F 29.69 in SE 5.0 mph 9.0 mph 94 % 0.00 in
11:54 43.1 °F 41.5 °F 29.69 in SSE 5.2 mph 29.0 mph 94 % 0.06 in
11:59 43.2 °F 41.6 °F 29.68 in SSE 6.3 mph 29.0 mph 94 % 0.07 in
12:04 43.3 °F 41.7 °F 29.67 in SSE 4.0 mph 29.0 mph 94 % 0.08 in
12:09 43.3 °F 41.7 °F 29.67 in SSE 2.8 mph 29.0 mph 94 % 0.09 in
12:10 43.3 °F 41.7 °F 29.67 in SSE 2.8 mph 29.0 mph 94 % 0.09 in
12:15 43.3 °F 41.7 °F 29.67 in SSE 1.2 mph 29.0 mph 94 % 0.08 in
12:20 43.3 °F 41.7 °F 29.66 in SSE 0.6 mph 29.0 mph 94 % 0.09 in
12:25 43.4 °F 42.1 °F 29.66 in SSE 0.1 mph 29.0 mph 95 % 0.09 in
12:30 43.4 °F 42.1 °F 29.65 in SSE 0.4 mph 29.0 mph 95 % 0.09 in
12:35 43.5 °F 42.2 °F 29.65 in Calm   29.0 mph 95 % 0.09 in
12:40 43.5 °F 42.2 °F 29.64 in Calm   29.0 mph 95 % 0.09 in
12:45 43.5 °F 42.2 °F 29.63 in Calm   29.0 mph 95 % 0.10 in
12:50 43.5 °F 42.2 °F 29.62 in SE 0.2 mph 29.0 mph 95 % 0.09 in
12:55 43.5 °F 42.2 °F 29.61 in SE 0.7 mph 29.0 mph 95 % 0.09 in
13:00 43.6 °F 42.3 °F 29.60 in SE 1.1 mph 29.0 mph 95 % 0.08 in
13:05 43.5 °F 42.2 °F 29.60 in ESE 0.6 mph 29.0 mph 95 % 0.07 in
13:10 43.6 °F 42.3 °F 29.59 in ESE 0.2 mph 29.0 mph 95 % 0.07 in
13:15 43.5 °F 42.2 °F 29.59 in ESE 0.2 mph 29.0 mph 95 % 0.07 in
13:20 43.5 °F 42.2 °F 29.58 in ESE 0.3 mph 29.0 mph 95 % 0.07 in
13:26 43.5 °F 42.2 °F 29.58 in Calm   29.0 mph 95 % 0.07 in
13:31 43.5 °F 42.2 °F 29.58 in Calm   29.0 mph 95 % 0.06 in
13:36 43.5 °F 42.2 °F 29.57 in ESE 0.3 mph 29.0 mph 95 % 0.06 in
13:41 43.5 °F 42.2 °F 29.57 in East 0.3 mph 29.0 mph 95 % 0.05 in
13:46 43.4 °F 42.1 °F 29.56 in Calm   29.0 mph 95 % 0.05 in
13:51 43.4 °F 42.1 °F 29.56 in Calm   29.0 mph 95 % 0.05 in
13:56 43.4 °F 42.1 °F 29.55 in Calm   29.0 mph 95 % 0.05 in
14:01 43.5 °F 42.2 °F 29.55 in ENE 0.7 mph 29.0 mph 95 % 0.05 in
14:06 43.5 °F 42.2 °F 29.54 in Calm   29.0 mph 95 % 0.06 in
14:11 43.6 °F 42.5 °F 29.54 in ENE 0.1 mph 29.0 mph 96 % 0.06 in
14:16 43.6 °F 42.5 °F 29.54 in Calm   29.0 mph 96 % 0.06 in
14:21 43.6 °F 42.5 °F 29.54 in Calm   29.0 mph 96 % 0.06 in
14:26 43.7 °F 42.6 °F 29.53 in ENE 0.5 mph 29.0 mph 96 % 0.07 in
14:31 43.8 °F 42.7 °F 29.52 in ENE 0.2 mph 29.0 mph 96 % 0.07 in
14:36 43.8 °F 42.7 °F 29.52 in Calm   29.0 mph 96 % 0.08 in
14:41 43.8 °F 42.7 °F 29.52 in Calm   29.0 mph 96 % 0.08 in
14:46 43.8 °F 42.7 °F 29.51 in Calm   29.0 mph 96 % 0.09 in
14:52 44.0 °F 42.9 °F 29.52 in ENE 0.8 mph 29.0 mph 96 % 0.10 in
14:57 44.1 °F 43.0 °F 29.51 in ENE 0.7 mph 29.0 mph 96 % 0.10 in
15:02 44.1 °F 43.0 °F 29.51 in NNE 0.7 mph 29.0 mph 96 % 0.10 in
15:07 44.2 °F 43.1 °F 29.51 in NNE 0.1 mph 29.0 mph 96 % 0.11 in
15:12 44.2 °F 43.1 °F 29.51 in NNE 0.9 mph 29.0 mph 96 % 0.11 in
15:17 44.2 °F 43.1 °F 29.51 in NNE 0.2 mph 29.0 mph 96 % 0.12 in
15:22 44.2 °F 43.1 °F 29.50 in NNW 1.1 mph 29.0 mph 96 % 0.13 in
15:27 44.2 °F 43.1 °F 29.50 in NNW 1.2 mph 29.0 mph 96 % 0.14 in
15:32 44.2 °F 43.1 °F 29.50 in Calm   29.0 mph 96 % 0.14 in
15:37 44.1 °F 43.0 °F 29.49 in Calm   29.0 mph 96 % 0.15 in
15:42 44.1 °F 43.0 °F 29.49 in NNW 0.3 mph 29.0 mph 96 % 0.16 in
15:47 44.1 °F 43.0 °F 29.49 in North 2.8 mph 29.0 mph 96 % 0.15 in
15:52 44.0 °F 42.9 °F 29.48 in NNE 2.8 mph 29.0 mph 96 % 0.14 in
15:57 43.9 °F 42.8 °F 29.49 in North 1.5 mph 29.0 mph 96 % 0.14 in
16:02 43.8 °F 42.7 °F 29.49 in NNE 3.8 mph 29.0 mph 96 % 0.14 in
16:08 43.7 °F 42.6 °F 29.52 in SW 7.3 mph 29.0 mph 96 % 0.14 in
16:13 43.3 °F 42.2 °F 29.51 in WNW 2.4 mph 29.0 mph 96 % 0.14 in
16:18 43.1 °F 42.0 °F 29.51 in NW 2.9 mph 29.0 mph 96 % 0.15 in
16:23 43.0 °F 41.9 °F 29.51 in West 5.8 mph 29.0 mph 96 % 0.15 in
16:28 42.9 °F 41.8 °F 29.51 in West 8.4 mph 29.0 mph 96 % 0.15 in
16:33 42.7 °F 41.4 °F 29.51 in WNW 9.4 mph 29.0 mph 95 % 0.14 in
16:38 42.4 °F 41.1 °F 29.50 in NNW 4.1 mph 29.0 mph 95 % 0.14 in
16:43 42.2 °F 40.9 °F 29.51 in North 4.6 mph 29.0 mph 95 % 0.13 in
16:48 41.9 °F 40.6 °F 29.50 in West 3.9 mph 29.0 mph 95 % 0.12 in
16:53 41.8 °F 40.5 °F 29.51 in NNE 3.8 mph 29.0 mph 95 % 0.12 in
16:58 41.6 °F 40.3 °F 29.50 in North 2.2 mph 29.0 mph 95 % 0.11 in
17:03 41.6 °F 40.3 °F 29.49 in NNW 2.3 mph 29.0 mph 95 % 0.10 in
17:08 41.5 °F 39.9 °F 29.49 in WNW 3.7 mph 29.0 mph 94 % 0.08 in
17:13 41.4 °F 39.8 °F 29.50 in NNW 4.9 mph 29.0 mph 94 % 0.06 in
17:18 41.4 °F 39.8 °F 29.49 in NNW 3.2 mph 29.0 mph 94 % 0.04 in
17:23 41.3 °F 39.7 °F 29.49 in NW 2.0 mph 29.0 mph 94 % 0.03 in
17:29 41.3 °F 39.7 °F 29.49 in WNW 2.0 mph 29.0 mph 94 % 0.01 in
17:34 41.2 °F 39.6 °F 29.50 in East 4.5 mph 29.0 mph 94 % 0.01 in
17:39 41.2 °F 39.6 °F 29.50 in WNW 2.7 mph 29.0 mph 94 % 0.00 in
17:44 41.1 °F 39.5 °F 29.50 in West 5.1 mph 29.0 mph 94 % 0.00 in
17:49 41.1 °F 39.5 °F 29.50 in West 4.3 mph 29.0 mph 94 % 0.00 in
17:54 41.0 °F 39.4 °F 29.50 in WNW 1.8 mph 29.0 mph 94 % 0.00 in
17:59 41.0 °F 39.4 °F 29.50 in WNW 5.4 mph 29.0 mph 94 % 0.00 in
18:04 41.0 °F 39.4 °F 29.49 in NW 8.0 mph 29.0 mph 94 % 0.00 in
18:09 40.9 °F 39.0 °F 29.49 in WSW 4.6 mph 29.0 mph 93 % 0.00 in
18:14 40.8 °F 38.9 °F 29.49 in WNW 3.7 mph 29.0 mph 93 % 0.00 in
18:19 40.6 °F 38.5 °F 29.49 in WNW 5.6 mph 29.0 mph 92 % 0.00 in
18:24 40.6 °F 38.5 °F 29.49 in West 5.0 mph 12.0 mph 92 % 0.00 in
18:29 40.5 °F 38.1 °F 29.50 in West 5.0 mph 10.0 mph 91 % 0.00 in
18:34 40.4 °F 38.0 °F 29.50 in West 5.0 mph 12.0 mph 91 % 0.00 in
18:39 40.3 °F 37.6 °F 29.50 in WNW 8.0 mph 21.0 mph 90 % 0.00 in
18:44 40.3 °F 37.3 °F 29.50 in NW 3.4 mph 29.0 mph 89 % 0.00 in
18:49 40.2 °F 37.2 °F 29.50 in West 3.0 mph 12.0 mph 89 % 0.00 in
18:54 40.1 °F 36.8 °F 29.50 in WNW 6.0 mph 13.0 mph 88 % 0.00 in
18:59 40.0 °F 36.7 °F 29.49 in WSW 7.9 mph 29.0 mph 88 % 0.00 in
19:04 39.9 °F 36.6 °F 29.49 in West 5.9 mph 29.0 mph 88 % 0.00 in
19:09 39.8 °F 36.2 °F 29.50 in WNW 6.4 mph 29.0 mph 87 % 0.00 in
19:15 39.8 °F 36.2 °F 29.50 in WNW 4.9 mph 29.0 mph 87 % 0.00 in
19:20 39.7 °F 36.1 °F 29.50 in SW 4.3 mph 29.0 mph 87 % 0.00 in
19:25 39.6 °F 36.0 °F 29.50 in WNW 2.0 mph 29.0 mph 87 % 0.00 in
19:30 39.5 °F 36.0 °F 29.50 in WNW 4.9 mph 29.0 mph 87 % 0.00 in
19:35 39.4 °F 35.9 °F 29.50 in WSW 4.8 mph 29.0 mph 87 % 0.00 in
19:40 39.3 °F 35.8 °F 29.50 in West 2.9 mph 29.0 mph 87 % 0.00 in
19:45 39.2 °F 35.7 °F 29.50 in WSW 3.8 mph 29.0 mph 87 % 0.00 in
19:50 39.1 °F 35.6 °F 29.50 in West 2.7 mph 29.0 mph 87 % 0.00 in
19:55 39.0 °F 35.5 °F 29.50 in NW 2.3 mph 29.0 mph 87 % 0.00 in
20:00 38.9 °F 35.4 °F 29.49 in WNW 4.2 mph 29.0 mph 87 % 0.00 in
20:05 38.9 °F 35.4 °F 29.49 in West 6.3 mph 29.0 mph 87 % 0.00 in
20:10 38.8 °F 35.3 °F 29.49 in West 4.6 mph 29.0 mph 87 % 0.00 in
20:15 38.8 °F 35.3 °F 29.49 in WSW 4.4 mph 29.0 mph 87 % 0.00 in
20:20 38.7 °F 35.5 °F 29.49 in WSW 3.6 mph 29.0 mph 88 % 0.00 in
20:25 38.7 °F 35.5 °F 29.49 in WSW 1.2 mph 29.0 mph 88 % 0.00 in
20:31 38.6 °F 35.4 °F 29.49 in West 4.3 mph 29.0 mph 88 % 0.00 in
20:36 38.6 °F 35.4 °F 29.49 in NW 4.6 mph 29.0 mph 88 % 0.00 in
20:41 38.6 °F 35.4 °F 29.49 in WSW 4.6 mph 29.0 mph 88 % 0.00 in
20:46 38.6 °F 35.1 °F 29.49 in West 3.1 mph 29.0 mph 87 % 0.00 in
20:51 38.5 °F 35.0 °F 29.49 in West 3.5 mph 29.0 mph 87 % 0.00 in
20:56 38.5 °F 35.0 °F 29.49 in WSW 4.9 mph 29.0 mph 87 % 0.00 in
21:01 38.4 °F 34.9 °F 29.49 in WSW 10.3 mph 29.0 mph 87 % 0.00 in
21:06 38.5 °F 34.7 °F 29.49 in WSW 3.8 mph 29.0 mph 86 % 0.00 in
21:11 38.5 °F 34.7 °F 29.49 in West 6.1 mph 29.0 mph 86 % 0.00 in
21:16 38.6 °F 34.8 °F 29.49 in WSW 6.3 mph 29.0 mph 86 % 0.00 in
21:21 38.6 °F 34.8 °F 29.48 in SW 5.5 mph 29.0 mph 86 % 0.00 in
21:26 38.6 °F 34.5 °F 29.48 in SW 3.9 mph 29.0 mph 85 % 0.00 in
21:31 38.6 °F 34.5 °F 29.48 in WSW 5.0 mph 29.0 mph 85 % 0.00 in
21:36 38.6 °F 34.5 °F 29.48 in West 5.6 mph 29.0 mph 85 % 0.00 in
21:41 38.6 °F 34.2 °F 29.48 in SW 4.5 mph 29.0 mph 84 % 0.00 in
21:47 38.5 °F 34.4 °F 29.49 in West 5.0 mph 29.0 mph 85 % 0.00 in
21:52 38.5 °F 34.4 °F 29.49 in SW 1.9 mph 29.0 mph 85 % 0.00 in
21:57 38.5 °F 34.1 °F 29.49 in WSW 4.8 mph 29.0 mph 84 % 0.00 in
22:02 38.4 °F 34.0 °F 29.49 in WSW 5.3 mph 29.0 mph 84 % 0.00 in
22:07 38.4 °F 33.7 °F 29.49 in WSW 7.4 mph 29.0 mph 83 % 0.00 in
22:12 38.4 °F 33.7 °F 29.49 in West 4.3 mph 29.0 mph 83 % 0.00 in
22:17 38.4 °F 33.4 °F 29.49 in West 7.4 mph 29.0 mph 82 % 0.00 in
22:22 38.4 °F 33.4 °F 29.49 in WNW 8.6 mph 29.0 mph 82 % 0.00 in
22:27 38.4 °F 33.4 °F 29.49 in WSW 6.0 mph 29.0 mph 82 % 0.00 in
22:32 38.4 °F 33.1 °F 29.49 in West 6.3 mph 29.0 mph 81 % 0.00 in
22:37 38.4 °F 33.1 °F 29.49 in WSW 6.5 mph 29.0 mph 81 % 0.00 in
22:42 38.3 °F 32.7 °F 29.49 in West 6.4 mph 29.0 mph 80 % 0.00 in
22:47 38.3 °F 32.7 °F 29.49 in West 5.7 mph 29.0 mph 80 % 0.00 in
22:52 38.3 °F 32.4 °F 29.49 in SW 5.8 mph 29.0 mph 79 % 0.00 in
22:57 38.3 °F 32.4 °F 29.49 in WSW 8.2 mph 29.0 mph 79 % 0.00 in
23:02 38.2 °F 32.3 °F 29.49 in WSW 3.3 mph 29.0 mph 79 % 0.00 in
23:07 38.2 °F 32.3 °F 29.49 in SW 6.1 mph 29.0 mph 79 % 0.00 in
23:12 38.2 °F 32.3 °F 29.49 in WSW 5.2 mph 29.0 mph 79 % 0.00 in
23:17 38.2 °F 32.3 °F 29.49 in WSW 6.5 mph 29.0 mph 79 % 0.00 in
23:22 38.2 °F 32.3 °F 29.49 in WSW 7.4 mph 29.0 mph 79 % 0.00 in
23:28 38.1 °F 32.5 °F 29.49 in West 3.7 mph 29.0 mph 80 % 0.00 in
23:33 38.0 °F 32.1 °F 29.49 in WSW 5.5 mph 29.0 mph 79 % 0.00 in
23:38 37.9 °F 32.0 °F 29.49 in West 6.4 mph 29.0 mph 79 % 0.00 in
23:43 37.9 °F 32.0 °F 29.49 in West 9.1 mph 29.0 mph 79 % 0.00 in
23:48 37.9 °F 31.7 °F 29.49 in WSW 11.6 mph 29.0 mph 78 % 0.00 in
23:53 38.0 °F 31.7 °F 29.49 in WSW 9.4 mph 29.0 mph 78 % 0.00 in
23:58 38.1 °F 31.8 °F 29.48 in WSW 8.3 mph 29.0 mph 78 % 0.00 in
Crab Meadow Weather
Compliments of Weather Underground - 3 mb

Script developed by  Jim McMurry - jmcmurry@mwt.net Adapted for the template by  Wim van der Kuil - Leuven-Template.eu

Astronomy: Pluto is not a planet, because it does not have a fixed orbit and it's orbit comes in between the orbit of another planet (Neptune).